Weather History for Grand Marais Airport, MN

Change the Weather History Date:

Saturday, March 29, 2014

  Actual Average Record
Temperature  
Mean Temperature 19 °F -  
Max Temperature 32 °F 36 °F 55 °F (1998)
Min Temperature 6 °F 19 °F 1 °F (2011)
Degree Days  
Heating Degree Days 46    
Moisture  
Dew Point 0 °F    
Average Humidity 41    
Maximum Humidity 68    
Minimum Humidity 23    
Precipitation  
Precipitation 0.10 in - - ()
Sea Level Pressure  
Sea Level Pressure 30.17 in    
Wind  
Wind Speed 5 mph (ESE)    
Max Wind Speed 10 mph    
Max Gust Speed -    
Visibility 10 miles    
Events      
Averages and records for this station are not official NWS values.
T = Trace of Precipitation, MM = Missing Value Source: NWS Daily Summary

Daily Weather History Graph

Daily Weather History Graph

Search for Another Location

Airport:

Trip Planner

Search our weather history database for the weather conditions in past years. The results will help you decide how hot, cold, wet, or windy it might be!

Date:

Astronomy

Mar. 29, 2014 Rise Set
Actual Time 6:46 AM CDT 7:27 PM CDT
Civil Twilight 6:14 AM CDT 7:58 PM CDT
Nautical Twilight 5:37 AM CDT 8:35 PM CDT
Astronomical Twilight 4:59 AM CDT 9:14 PM CDT
Moon 5:59 AM CDT (3/29) 6:30 PM CDT (3/29)
Length of Visible Light 13h 43m
Length of Day
12h 41m
Waning Crescent, 2% of the Moon is Illuminated
Mar 29
Waning Crescent
Mar 30
New
Apr 7
First Quarter
Apr 15
Full
Apr 22
Last Quarter

Hourly Weather History & Observations

Time (CDT) Temp. Windchill Dew Point Humidity Pressure Visibility Wind Dir Wind Speed Gust Speed Precip Events Conditions
12:13 AM 15.8 °F 10.2 °F -2.2 °F 45% 30.18 in 10.0 mi NNW 3.5 mph - N/A   Scattered Clouds
12:34 AM 12.2 °F 0.7 °F -0.4 °F 57% 30.19 in 10.0 mi NNW 8.1 mph - N/A   Scattered Clouds
12:54 AM 15.8 °F 8.6 °F -2.2 °F 45% 30.19 in 10.0 mi NNW 4.6 mph - N/A   Mostly Cloudy
1:13 AM 15.8 °F 7.2 °F -2.2 °F 45% 30.18 in 10.0 mi NNW 5.8 mph - N/A   Overcast
1:34 AM 15.8 °F 10.2 °F -2.2 °F 45% 30.19 in 10.0 mi NNW 3.5 mph - N/A   Overcast
1:53 AM 15.8 °F 10.2 °F -2.2 °F 45% 30.19 in 10.0 mi NNW 3.5 mph - N/A   Mostly Cloudy
2:14 AM 14.0 °F 8.2 °F -2.2 °F 49% 30.19 in 10.0 mi NNW 3.5 mph - N/A   Scattered Clouds
2:33 AM 12.2 °F 4.3 °F -2.2 °F 53% 30.19 in 10.0 mi NNW 4.6 mph - N/A   Scattered Clouds
2:53 AM 12.2 °F 4.3 °F -2.2 °F 53% 30.19 in 10.0 mi NNW 4.6 mph - N/A   Clear
3:13 AM 10.4 °F 2.2 °F -2.2 °F 57% 30.19 in 10.0 mi NNW 4.6 mph - N/A   Scattered Clouds
3:34 AM 10.4 °F 0.8 °F -2.2 °F 57% 30.19 in 10.0 mi NNW 5.8 mph - N/A   Scattered Clouds
3:53 AM 10.4 °F 2.2 °F -2.2 °F 57% 30.19 in 10.0 mi NNW 4.6 mph - N/A   Scattered Clouds
4:13 AM 10.4 °F 0.8 °F -2.2 °F 57% 30.19 in 10.0 mi North 5.8 mph - N/A   Scattered Clouds
4:34 AM 10.4 °F -1.5 °F -4.0 °F 52% 30.20 in 10.0 mi NNW 8.1 mph - N/A   Mostly Cloudy
4:53 AM 10.4 °F -0.4 °F -4.0 °F 52% 30.21 in 10.0 mi NNW 6.9 mph - N/A   Mostly Cloudy
5:14 AM 10.4 °F 0.8 °F -4.0 °F 52% 30.21 in 10.0 mi NNW 5.8 mph - N/A   Scattered Clouds
5:34 AM 8.6 °F 0.1 °F -4.0 °F 57% 30.21 in 10.0 mi NNW 4.6 mph - N/A   Scattered Clouds
5:53 AM 10.4 °F 4.0 °F -4.0 °F 52% 30.22 in 10.0 mi NNW 3.5 mph - N/A   Scattered Clouds
6:14 AM 8.6 °F -2.6 °F -5.8 °F 52% 30.22 in 10.0 mi NNW 6.9 mph - N/A   Scattered Clouds
6:33 AM 6.8 °F -2.0 °F -5.8 °F 56% 30.22 in 10.0 mi North 4.6 mph - N/A   Scattered Clouds
6:53 AM 6.8 °F - -5.8 °F 56% 30.22 in 10.0 mi Calm Calm - N/A   Scattered Clouds
7:13 AM 6.8 °F -0.1 °F -5.8 °F 56% 30.22 in 10.0 mi North 3.5 mph - N/A   Scattered Clouds
7:34 AM 8.6 °F 0.1 °F -5.8 °F 52% 30.22 in 10.0 mi North 4.6 mph - N/A   Scattered Clouds
7:53 AM 10.4 °F 4.0 °F -5.8 °F 48% 30.22 in 10.0 mi North 3.5 mph - N/A   Scattered Clouds
8:13 AM 15.8 °F 10.2 °F -4.0 °F 41% 30.22 in 10.0 mi North 3.5 mph - N/A   Clear
8:33 AM 17.6 °F - -4.0 °F 38% 30.22 in 10.0 mi Calm Calm - N/A   Clear
8:53 AM 21.2 °F - -4.0 °F 33% 30.22 in 10.0 mi Calm Calm - N/A   Clear
9:14 AM 24.8 °F 20.5 °F -5.8 °F 26% 30.22 in 10.0 mi SE 3.5 mph - N/A   Clear
9:33 AM 24.8 °F - -5.8 °F 26% 30.22 in 10.0 mi Calm Calm - N/A   Clear
9:53 AM 26.6 °F - -5.8 °F 24% 30.22 in 10.0 mi Calm Calm - N/A   Clear
10:13 AM 28.4 °F - -4.0 °F 25% 30.23 in 10.0 mi Calm Calm - N/A   Clear
10:34 AM 28.4 °F 24.6 °F -4.0 °F 25% 30.22 in 10.0 mi SE 3.5 mph - N/A   Clear
10:53 AM 30.2 °F 26.7 °F -4.0 °F 23% 30.22 in 10.0 mi South 3.5 mph - N/A   Clear
11:13 AM 30.2 °F 23.4 °F -4.0 °F 23% 30.22 in 10.0 mi South 6.9 mph - 0.01 in   Clear
11:34 AM 30.2 °F 21.9 °F -2.2 °F 25% 30.22 in 10.0 mi SSE 9.2 mph - 0.01 in   Clear
11:53 AM 30.2 °F 24.3 °F -2.2 °F 25% 30.22 in 10.0 mi SE 5.8 mph - 0.02 in   Clear
12:14 PM 30.2 °F 23.4 °F -0.4 °F 27% 30.21 in 10.0 mi SSE 6.9 mph - N/A   Clear
12:33 PM 30.2 °F 24.3 °F -2.2 °F 25% 30.21 in 10.0 mi SSE 5.8 mph - 0.02 in   Clear
12:53 PM 32.0 °F 25.6 °F 1.4 °F 27% 30.21 in 10.0 mi South 6.9 mph - 0.03 in   Clear
1:13 PM 32.0 °F 24.2 °F 1.4 °F 27% 30.21 in 10.0 mi SSE 9.2 mph - 0.01 in   Scattered Clouds
1:34 PM 30.2 °F 21.9 °F -0.4 °F 27% 30.20 in 10.0 mi SSE 9.2 mph - 0.02 in   Overcast
1:53 PM 32.0 °F 26.4 °F 3.2 °F 30% 30.19 in 10.0 mi South 5.8 mph - 0.03 in   Scattered Clouds
2:14 PM 32.0 °F 24.8 °F 1.4 °F 27% 30.18 in 10.0 mi SSE 8.1 mph - 0.01 in   Clear
2:34 PM 32.0 °F 25.6 °F 3.2 °F 30% 30.18 in 10.0 mi SSE 6.9 mph - 0.02 in   Clear
2:53 PM 32.0 °F 25.6 °F 1.4 °F 27% 30.17 in 10.0 mi SSE 6.9 mph - 0.02 in   Clear
3:13 PM 30.2 °F 25.4 °F 1.4 °F 29% 30.17 in 10.0 mi South 4.6 mph - N/A   Clear
3:34 PM 30.2 °F 21.3 °F -0.4 °F 27% 30.16 in 10.0 mi South 10.4 mph - N/A   Clear
3:53 PM 30.2 °F 22.6 °F -0.4 °F 27% 30.16 in 10.0 mi SSE 8.1 mph - N/A   Clear
4:14 PM 30.2 °F 23.4 °F 1.4 °F 29% 30.15 in 10.0 mi South 6.9 mph - N/A   Clear
4:34 PM 30.2 °F 22.6 °F -0.4 °F 27% 30.15 in 10.0 mi SSE 8.1 mph - N/A   Clear
4:53 PM 30.2 °F 21.9 °F -0.4 °F 27% 30.14 in 10.0 mi SSE 9.2 mph - N/A   Clear
5:14 PM 30.2 °F 22.6 °F -0.4 °F 27% 30.14 in 10.0 mi South 8.1 mph - N/A   Clear
5:34 PM 30.2 °F 25.4 °F -0.4 °F 27% 30.13 in 10.0 mi SSE 4.6 mph - N/A   Clear
5:53 PM 30.2 °F 23.4 °F -0.4 °F 27% 30.13 in 10.0 mi SSE 6.9 mph - N/A   Clear
6:14 PM 28.4 °F 23.3 °F -0.4 °F 29% 30.12 in 10.0 mi SSE 4.6 mph - N/A   Clear
6:33 PM 28.4 °F - -0.4 °F 29% 30.12 in 10.0 mi Calm Calm - N/A   Clear
6:54 PM 26.6 °F 22.6 °F -0.4 °F 31% 30.12 in 10.0 mi SSE 3.5 mph - N/A   Clear
7:13 PM 26.6 °F 22.6 °F -2.2 °F 29% 30.12 in 10.0 mi SE 3.5 mph - N/A   Clear
7:34 PM 24.8 °F - -2.2 °F 31% 30.12 in 10.0 mi Calm Calm - N/A   Clear
7:54 PM 24.8 °F 20.5 °F -0.4 °F 34% 30.11 in 10.0 mi ESE 3.5 mph - N/A   Clear
8:13 PM 24.8 °F 19.1 °F -0.4 °F 34% 30.10 in 10.0 mi ESE 4.6 mph - N/A   Clear
8:33 PM 21.2 °F 12.6 °F 5.0 °F 50% 30.10 in 10.0 mi ESE 6.9 mph - N/A   Clear
8:54 PM 21.2 °F 13.6 °F 6.8 °F 54% 30.09 in 10.0 mi ESE 5.8 mph - N/A   Clear
9:13 PM 21.2 °F 14.9 °F 8.6 °F 58% 30.09 in 10.0 mi ESE 4.6 mph - N/A   Clear
9:34 PM 21.2 °F 12.6 °F 12.2 °F 68% 30.09 in 10.0 mi ESE 6.9 mph - N/A   Mostly Cloudy
9:53 PM 21.2 °F 13.6 °F 12.2 °F 68% 30.09 in 10.0 mi East 5.8 mph - N/A   Overcast
10:14 PM 21.2 °F 14.9 °F 10.4 °F 63% 30.07 in 10.0 mi ESE 4.6 mph - N/A   Scattered Clouds
10:33 PM 21.2 °F 13.6 °F 8.6 °F 58% 30.07 in 10.0 mi ESE 5.8 mph - N/A   Clear
10:53 PM 21.2 °F 13.6 °F 10.4 °F 63% 30.06 in 10.0 mi East 5.8 mph - N/A   Clear
11:13 PM 21.2 °F 14.9 °F 10.4 °F 63% 30.06 in 10.0 mi ESE 4.6 mph - N/A   Clear
11:34 PM 23.0 °F 15.8 °F 12.2 °F 63% 30.06 in 10.0 mi East 5.8 mph - N/A   Clear
11:53 PM 21.2 °F 14.9 °F 12.2 °F 68% 30.05 in 10.0 mi ESE 4.6 mph - N/A   Clear